Weather History for Elsenborn, Belgium

Change the Weather History Date:

Sunday, December 9, 2012

  Actual Average Record
Temperature  
Mean Temperature 27 °F -  
Max Temperature 34 °F 36 °F 44 °F (2000)
Min Temperature 20 °F 31 °F 20 °F (2012)
Degree Days  
Heating Degree Days 38    
Moisture  
Dew Point 29 °F    
Average Humidity 97    
Maximum Humidity 100    
Minimum Humidity 91    
Precipitation  
Precipitation 0.39 in - - ()
Sea Level Pressure  
Sea Level Pressure 29.94 in    
Wind  
Wind Speed 9 mph ()    
Max Wind Speed 22 mph    
Max Gust Speed 32 mph    
Visibility 2.1 miles    
Events Fog , Snow    
Averages and records for this station are not official NWS values.
T = Trace of Precipitation, MM = Missing Value Source: Averaged Metar Reports

Daily Weather History Graph

Daily Weather History Graph

Search for Another Location

Airport:

Trip Planner

Search our weather history database for the weather conditions in past years. The results will help you decide how hot, cold, wet, or windy it might be!

Date:

Astronomy

Dec. 09, 2012 Rise Set
Actual Time 8:24 AM CET 4:31 PM CET
Civil Twilight 7:45 AM CET 5:09 PM CET
Nautical Twilight 7:03 AM CET 5:51 PM CET
Astronomical Twilight 6:24 AM CET 6:31 PM CET
Moon 3:16 AM CET (12/9) 1:47 PM CET (12/9)
Length of Visible Light 9h 24m
Length of Day
8h 07m
Waning Crescent, 21% of the Moon is Illuminated
Dec 9
Waning Crescent
Dec 13
New
Dec 20
First Quarter
Dec 28
Full
Jan 5
Last Quarter

Hourly Weather History & Observations

Time (CET) Temp. Windchill Dew Point Humidity Pressure Visibility Wind Dir Wind Speed Gust Speed Precip Events Conditions
12:25 AM 21.2 °F 12.6 °F 21.2 °F 100% 30.18 in 0.7 mi SW 6.9 mph - N/A   Overcast
12:50 AM 23.0 °F 15.8 °F 21.2 °F 93% 30.18 in 1.0 mi SW 5.8 mph - N/A   Mostly Cloudy
12:56 AM 23.0 °F 15.8 °F 21.2 °F 93% 30.18 in 0.9 mi SW 5.8 mph - N/A   Overcast
1:00 AM 22 °F - 21 °F 92% 30.32 in 1 mi SW 4.5 mph - - Fog Fog
1:02 AM 23.0 °F 15.8 °F 21.2 °F 93% 30.18 in 1.0 mi WSW 5.8 mph - N/A   Overcast
1:25 AM 23.0 °F 17.0 °F 21.2 °F 93% 30.18 in 1.1 mi SW 4.6 mph - N/A   Overcast
2:10 AM 21.2 °F 14.9 °F 21.2 °F 100% 30.18 in - SW 4.6 mph - N/A   Overcast
2:25 AM 21.2 °F 13.6 °F 21.2 °F 100% 30.18 in - SW 5.8 mph - N/A   Overcast
3:25 AM 23.0 °F 18.4 °F 21.2 °F 93% 30.15 in - Variable 3.5 mph - N/A   Mostly Cloudy
3:30 AM 23.0 °F 17.0 °F 21.2 °F 93% 30.15 in 2.8 mi SW 4.6 mph - N/A   Mostly Cloudy
4:00 AM 23 °F - 21 °F 91% 30.28 in 2 mi 4.5 mph - - Snow Snow Grains
4:08 AM 23.0 °F 14.7 °F 21.2 °F 93% 30.15 in 0.9 mi SW 6.9 mph - N/A   Overcast
4:25 AM 23.0 °F 14.7 °F 21.2 °F 93% 30.15 in 0.7 mi SW 6.9 mph - N/A   Overcast
4:38 AM 23.0 °F 15.8 °F 21.2 °F 93% 30.12 in 0.4 mi SW 5.8 mph - N/A   Mostly Cloudy
4:44 AM 23.0 °F 14.7 °F 21.2 °F 93% 30.12 in 0.6 mi SW 6.9 mph - N/A   Mostly Cloudy
4:54 AM 23.0 °F 15.8 °F 21.2 °F 93% 30.12 in 0.4 mi SW 5.8 mph - N/A   Mostly Cloudy
5:20 AM 23.0 °F 14.7 °F 23.0 °F 100% 30.09 in 0.5 mi SW 6.9 mph - N/A   Mostly Cloudy
5:25 AM 23.0 °F 14.7 °F 23.0 °F 100% 30.09 in 0.8 mi SW 6.9 mph - N/A   Overcast
6:09 AM 24.8 °F 16.9 °F 23.0 °F 93% 30.09 in 0.4 mi SW 6.9 mph - N/A   Overcast
6:25 AM 24.8 °F 16.9 °F 23.0 °F 93% 30.09 in 0.4 mi SW 6.9 mph - N/A   Overcast
7:00 AM 25 °F - 24 °F 96% 30.19 in 0 mi SSW 6.7 mph - - Snow Heavy Snow
7:15 AM 24.8 °F 16.1 °F 24.8 °F 100% 30.06 in 0.5 mi SSW 8.1 mph - N/A   Overcast
7:25 AM 26.6 °F 18.2 °F 24.8 °F 93% 30.06 in 0.6 mi SSW 8.1 mph - N/A   Overcast
7:28 AM 26.6 °F 18.2 °F 24.8 °F 93% 30.06 in 0.4 mi SSW 8.1 mph - N/A   Overcast
7:42 AM 26.6 °F 18.2 °F 24.8 °F 93% 30.06 in 0.5 mi SSW 8.1 mph - N/A   Mostly Cloudy
7:58 AM 26.6 °F 18.2 °F 24.8 °F 93% 30.06 in 1.1 mi SSW 8.1 mph - N/A   Mostly Cloudy
8:25 AM 26.6 °F 16.8 °F 24.8 °F 93% 30.04 in 1.0 mi SSW 10.4 mph - N/A   Mostly Cloudy
9:25 AM 28.4 °F 19.1 °F 26.6 °F 93% 30.01 in 1.2 mi SW 10.4 mph - N/A   Overcast
9:28 AM 28.4 °F 19.1 °F 26.6 °F 93% 30.01 in 0.9 mi SW 10.4 mph - N/A   Overcast
9:38 AM 28.4 °F 19.7 °F 26.6 °F 93% 30.01 in 1.1 mi SSW 9.2 mph - N/A   Overcast
10:00 AM 28 °F - 27 °F 96% 30.12 in 1 mi SSW 8.9 mph - - Snow Light Snow
10:00 AM 28.4 °F 19.7 °F 28.4 °F 100% 30.01 in 1.8 mi SSW 9.2 mph - N/A   Overcast
10:20 AM 30.2 °F 21.3 °F 28.4 °F 93% 30.01 in 0.9 mi SW 10.4 mph - N/A   Overcast
10:25 AM 30.2 °F 21.3 °F 30.2 °F 100% 30.01 in 1.1 mi SW 10.4 mph - N/A   Overcast
10:55 AM 32.0 °F 22.5 °F 30.2 °F 93% 29.98 in 1.2 mi SW 12.7 mph - N/A   Mostly Cloudy
11:01 AM 32.0 °F 22.5 °F 30.2 °F 93% 29.98 in 1.2 mi SW 12.7 mph - N/A   Overcast
11:25 AM 32.0 °F 21.6 °F 32.0 °F 100% 29.95 in 0.7 mi WSW 15.0 mph - N/A   Overcast
11:45 AM 32.0 °F 21.6 °F 32.0 °F 100% 29.95 in 0.9 mi WSW 15.0 mph - N/A   Mostly Cloudy
12:16 PM 32.0 °F 21.2 °F 32.0 °F 100% 29.92 in 1.0 mi WSW 16.1 mph - N/A   Overcast
12:25 PM 32.0 °F 21.6 °F 32.0 °F 100% 29.92 in 1.2 mi WSW 15.0 mph - N/A   Overcast
12:41 PM 32.0 °F 21.2 °F 32.0 °F 100% 29.92 in 0.9 mi WSW 16.1 mph - N/A   Overcast
12:47 PM 32.0 °F 21.2 °F 32.0 °F 100% 29.92 in 1.0 mi WSW 16.1 mph - N/A   Overcast
12:55 PM 32.0 °F 20.8 °F 32.0 °F 100% 29.92 in 1.3 mi WSW 17.3 mph - N/A   Mostly Cloudy
1:00 PM 32 °F - 32 °F 100% 30.00 in 1 mi WSW 15.7 mph - - Snow Light Snow
1:15 PM 32.0 °F 21.6 °F 32.0 °F 100% 29.89 in 0.7 mi West 15.0 mph - N/A   Overcast
1:22 PM 32.0 °F 22.1 °F 32.0 °F 100% 29.89 in 0.4 mi West 13.8 mph - N/A   Overcast
1:25 PM 32.0 °F 21.6 °F 32.0 °F 100% 29.89 in 0.3 mi West 15.0 mph - N/A   Overcast
2:25 PM 32.0 °F 21.6 °F 32.0 °F 100% 29.89 in 1.2 mi WSW 15.0 mph - N/A   Overcast
2:55 PM 32.0 °F 22.5 °F 32.0 °F 100% 29.86 in 0.9 mi WSW 12.7 mph - N/A   Mostly Cloudy
3:25 PM 32.0 °F 22.5 °F 32.0 °F 100% 29.86 in 1.3 mi WSW 12.7 mph - N/A   Overcast
3:40 PM 32.0 °F 22.1 °F 32.0 °F 100% 29.86 in 3.1 mi WSW 13.8 mph - N/A   Overcast
3:55 PM 32.0 °F 22.5 °F 32.0 °F 100% 29.83 in 1.2 mi WSW 12.7 mph - N/A   Mostly Cloudy
4:00 PM 32 °F - 32 °F 100% 29.93 in 2 mi WSW 13.4 mph - - Snow Light Snow Showers
4:01 PM 32.0 °F 22.5 °F 32.0 °F 100% 29.83 in 0.4 mi WSW 12.7 mph - N/A   Mostly Cloudy
4:25 PM 32.0 °F 22.5 °F 32.0 °F 100% 29.83 in 0.2 mi WSW 12.7 mph - N/A   Overcast
5:25 PM 32.0 °F 22.5 °F 32.0 °F 100% 29.83 in 1.9 mi WSW 12.7 mph - N/A   Mostly Cloudy
5:28 PM 32.0 °F 23.0 °F 32.0 °F 100% 29.83 in 3.1 mi WSW 11.5 mph - N/A   Overcast
5:34 PM 32.0 °F 23.0 °F 32.0 °F 100% 29.80 in 1.2 mi West 11.5 mph - N/A   Overcast
6:00 PM 32.0 °F 22.5 °F 32.0 °F 100% 29.80 in 6.2 mi WSW 12.7 mph - N/A   Mostly Cloudy
6:06 PM 32.0 °F 22.5 °F 32.0 °F 100% 29.80 in 6.2 mi WSW 12.7 mph - N/A   Mostly Cloudy
6:15 PM 32.0 °F 23.6 °F 32.0 °F 100% 29.80 in 1.2 mi WSW 10.4 mph - N/A   Overcast
6:21 PM 32.0 °F 23.6 °F 32.0 °F 100% 29.80 in 0.3 mi WSW 10.4 mph - N/A   Overcast
6:25 PM 32.0 °F 23.0 °F 32.0 °F 100% 29.80 in 0.2 mi West 11.5 mph - N/A   Overcast
6:48 PM 33.8 °F 25.3 °F 33.8 °F 100% 29.80 in 0.5 mi West 11.5 mph - N/A   Overcast
6:55 PM 33.8 °F 25.3 °F 33.8 °F 100% 29.80 in 1.7 mi West 11.5 mph - N/A   Mostly Cloudy
7:00 PM 33 °F - 33 °F 100% 29.88 in 1 mi West 11.2 mph - -   Unknown Precipitation
7:16 PM 33.8 °F 23.9 °F 33.8 °F 100% 29.80 in 6.2 mi West 15.0 mph - N/A   Mostly Cloudy
7:22 PM 33.8 °F 23.5 °F 33.8 °F 100% 29.77 in 5.0 mi West 16.1 mph - N/A   Overcast
7:25 PM 33.8 °F 23.9 °F 33.8 °F 100% 29.77 in 5.0 mi West 15.0 mph - N/A   Mostly Cloudy
7:28 PM 33.8 °F 23.5 °F 33.8 °F 100% 29.77 in 4.3 mi West 16.1 mph - N/A   Overcast
7:51 PM 33.8 °F 23.2 °F 33.8 °F 100% 29.77 in 6.2 mi West 17.3 mph - N/A   Mostly Cloudy
8:25 PM 33.8 °F 22.2 °F 33.8 °F 100% 29.74 in 3.1 mi West 20.7 mph 32.2 mph N/A   Mostly Cloudy
8:46 PM 33.8 °F 22.8 °F 32.0 °F 93% 29.77 in 0.9 mi West 18.4 mph - N/A   Mostly Cloudy
8:55 PM 33.8 °F 22.5 °F 32.0 °F 93% 29.77 in 1.0 mi West 19.6 mph - N/A   Mostly Cloudy
9:01 PM 33.8 °F 22.8 °F 32.0 °F 93% 29.77 in - West 18.4 mph - N/A   Mostly Cloudy
9:11 PM 33.8 °F 23.2 °F 32.0 °F 93% 29.77 in 6.2 mi WNW 17.3 mph 28.8 mph N/A   Mostly Cloudy
9:21 PM 33.8 °F 22.5 °F 32.0 °F 93% 29.77 in 6.2 mi WNW 19.6 mph - N/A   Mostly Cloudy
9:25 PM 33.8 °F 22.8 °F 32.0 °F 93% 29.77 in 6.2 mi WNW 18.4 mph - N/A   Mostly Cloudy
9:33 PM 33.8 °F 23.2 °F 33.8 °F 100% 29.77 in 6.2 mi WNW 17.3 mph - N/A   Mostly Cloudy
10:00 PM 34 °F - 33 °F 93% 29.83 in 8 mi West 17.9 mph - - Snow Snow
10:06 PM 33.8 °F 22.8 °F 33.8 °F 100% 29.74 in 6.2 mi West 18.4 mph - N/A   Overcast
10:12 PM 33.8 °F 23.2 °F 33.8 °F 100% 29.74 in 6.2 mi West 17.3 mph 28.8 mph N/A   Overcast
10:25 PM 33.8 °F 22.8 °F 32.0 °F 93% 29.74 in 6.2 mi West 18.4 mph - N/A   Mostly Cloudy
10:31 PM 33.8 °F 22.5 °F 32.0 °F 93% 29.74 in 6.2 mi West 19.6 mph - N/A   Mostly Cloudy
11:25 PM 33.8 °F 23.2 °F 32.0 °F 93% 29.74 in 6.2 mi West 17.3 mph - N/A   Mostly Cloudy
11:50 PM 33.8 °F 22.5 °F 32.0 °F 93% 29.74 in 1.7 mi West 19.6 mph - N/A   Mostly Cloudy
11:56 PM 32.0 °F 19.5 °F 32.0 °F 100% 29.74 in 0.4 mi WNW 21.9 mph - N/A   Mostly Cloudy